Location: Izdebno
(52.6670°N, 16.2170°E)
Time: 10:19:44
(UTC+02:00)

A-11 Canister half - Pass Details

Date: 25 February 2024
Orbit: 1513 x 1686 km, 47.2° (Epoch: 24 April)

Event Time Altitude Azimuth Distance (km) Brightness Sun altitude
Exits shadow 05:38:18 14° 267° (W) 3,581 10.2 -11.9°
Maximum altitude 05:46:59 62° 192° (SSW) 1,807 9.3 -10.6°
Drops below altitude 10° 05:56:26 10° 115° (ESE) 3,792 12.3 -9.2°
Sets 05:59:31 0° 112° (ESE) 4,753 13.2 -8.7°
